www.pogodaiklimat.ru

Погода и климат >> Архив погоды >> Ирландия >> Остров Шеркин


ПОГОДА на Острове Шеркин

  • Прогноз погоды на Острове Шеркин
  • Монитор погоды на Острове Шеркин

АРХИВ ПОГОДЫ на Острове Шеркин

Время (UTC), дата Ветер
(напр.,м/с)
 
Видим.   Явления Облачность Т
(С)
Тd
(С)
f
(%)
Тe
(С)
Тes
(С)
Комфортность P
(гПа)
Po
(гПа)
Тmin
(С)
Tmax
(С)
R
(мм)
R24
(мм)
S
(см)
07 14.04 ЮВ 12
{19}
12 км {ливн. осадки} н/о +9.2 +8.1 93 +4 +4 1012.3 1009.6
08 14.04 ЮВ 12
{18}
9000 м морось н/о +9.1 +8.1 93 +4 +4 1014.5 1011.9
09 14.04 ЮВ 12 8000 м слаб. ливневой дождь {морось} н/о +9.1 +8.2 94 +4 +4 1013.6 1011.0
10 14.04 ЮВ 11
{18}
9000 м в посл. час дождь {ливн. осадки} н/о +9.0 +8.0 93 +4 +4 1014.6 1012.0
11 14.04 ЮВ 11 11 км н/о +9.2 +7.9 92 +4 +4 1015.2 1012.5
12 14.04 ЮВ 10 13 км {ливн. осадки, морось} н/о +9.1 +7.7 91 +4 +4 1015.2 1012.5 0.6
13 14.04 ЮВ 10 11 км слаб. ливневой дождь н/о +8.9 +7.4 90 +4 +4 1015.4 1012.7
14 14.04 ЮВ 10 16 км н/о +8.7 +7.4 92 +4 +4 1015.3 1012.7
15 14.04 ЮВ 9 11 км {ливн. осадки} н/о +8.6 +7.3 92 +4 +4 1015.0 1012.4
16 14.04 В 9 5000 м слаб. дождь н/о +8.4 +7.4 93 +3 +3 1014.6 1012.0
17 14.04 В 10 2500 м ливневой дождь н/о +8.1 +7.3 95 +3 +3 1015.0 1012.3
18 14.04 В 12 3000 м слаб. дождь н/о +7.5 +7.1 97 +1 +1 1014.5 1011.9 +9.5 3
19 14.04 В 12 7000 м слаб. ливневой дождь н/о +7.5 +6.6 94 +1 +1 1014.3 1011.6
20 14.04 В 12
{17}
5000 м слаб. дождь н/о +7.5 +6.5 93 +1 +1 1014.3 1011.6
21 14.04 В 12
{18}
4300 м слаб. дождь н/о +7.4 +6.2 92 +1 +1 1013.9 1011.2
22 14.04 В 13
{18}
6000 м слаб. дождь н/о +7.2 +6.1 93 +1 +1 1013.1 1010.4
23 14.04 В 14
{21}
6000 м слаб. дождь н/о +7.3 +6.2 93 +1 +1 1011.5 1008.9
00 15.04 В 14
{21}
5000 м слаб. дождь н/о +7.3 +6.4 94 +1 +1 1010.1 1007.5 8
01 15.04 В 15
{21}
5000 м слаб. дождь н/о +8.0 +7.1 94 +2 +2 1009.1 1006.5
02 15.04 В 12
{20}
4100 м слаб. дождь н/о +8.3 +7.3 93 +3 +3 1008.2 1005.6
03 15.04 В 14
{19}
5000 м слаб. дождь н/о +8.4 +7.6 95 +2 +2 1006.9 1004.3
04 15.04 В 13
{19}
3400 м дождь н/о +8.4 +7.9 97 +2 +2 1005.7 1003.1
05 15.04 В 11
{18}
3700 м дождь н/о +9.2 +8.7 97 +4 +4 1004.6 1002.0
06 15.04 ЮВ 12
{19}
4400 м слаб. дождь н/о +9.8 +9.4 97 +5 +5 1003.0 1000.4 +7.1 24
07 15.04 ЮВ 12
{19}
9000 м в посл. час дождь н/о +10.1 +9.6 97 +5 +5 1002.8 1000.2
08 15.04 ЮВ 14
{20}
3000 м дождь н/о +9.8 +9.3 97 +4 +4 1002.2 999.6
09 15.04 ЮВ 14
{21}
4200 м слаб. дождь н/о +9.7 +9.2 97 +4 +4 1001.7 999.1
10 15.04 ЮВ 14
{22}
4400 м слаб. дождь н/о +9.4 +8.8 96 +4 +4 1001.4 998.8
11 15.04 ЮВ 14
{24}
4900 м слаб. дождь н/о +9.3 +8.5 95 +4 +4 1000.9 998.3
12 15.04 ЮВ 13
{23}
5000 м слаб. дождь н/о +9.2 +8.4 95 +4 +4 1000.6 998.0 12
13 15.04 ЮВ 14
{22}
6000 м в посл. час дождь н/о +9.3 +8.2 93 +4 +4 1000.9 998.3
14 15.04 ЮВ 15
{23}
3000 м слаб. ливневой дождь н/о +9.2 +8.2 93 +3 +3 1001.1 998.5
15 15.04 Ю 12
{20}
3000 м слаб. дождь н/о +9.8 +9.3 97 +5 +5 1002.4 999.8
16 15.04 Ю 7 9000 м в посл. час дождь {ливн. осадки} н/о +10.0 +9.4 96 +6 +6 1003.0 1000.4
17 15.04 Ю 8 8000 м дымка н/о +10.6 +9.6 94 +7 +7 1003.8 1001.2
18 15.04 Ю 6 7000 м дымка {ливн. осадки, дождь} н/о +10.8 +9.1 89 +8 +8 1004.9 1002.3 +10.8 15
19 15.04 Ю 6 7000 м дымка н/о +10.5 +8.6 88 +7 +7 1005.9 1003.3
20 15.04 Ю 5 8000 м дымка н/о +9.9 +8.5 91 +7 +7 1007.2 1004.6
21 15.04 ЮЗ 4 4700 м дымка н/о +9.7 +8.7 93 +7 +7 1008.5 1005.8
22 15.04 Ю 4 3800 м дымка н/о +9.4 +8.5 94 +6 +6 1009.2 1006.5
23 15.04 Ю 4 4500 м дымка н/о +9.3 +8.5 95 +6 +6 1009.9 1007.2
00 16.04 Ю 4 7000 м дымка н/о +9.1 +8.2 94 +6 +6 1010.3 1007.7
01 16.04 Ю 3 4200 м дымка н/о +8.9 +8.1 95 +6 +6 1011.0 1008.3
02 16.04 Ю 1 4800 м дымка н/о +8.3 +7.6 95 +7 +7 1011.5 1008.9
03 16.04 Ю 3 7000 м дымка н/о +9.0 +8.5 97 +6 +6 1011.7 1009.1
04 16.04 штиль 0 4400 м дымка н/о +8.1 +7.5 96 +7 +7 1011.9 1009.3
05 16.04 Ю 1 6000 м дымка н/о +8.8 +8.4 97 +8 +8 1012.1 1009.5
06 16.04 В 1 1000 м в посл. час туман {дымка} ?/? +8.5 +8.0 97 +8 +8 1012.7 1010.0 +7.4 0.2
07 16.04 Ю 3 6000 м в посл. час туман н/о +9.8 +9.4 97 +7 +7 1013.3 1010.6
08 16.04 ЮВ 3 9000 м дымка н/о +10.7 +10.2 97 +9 +9 1013.6 1011.0
09 16.04 ЮВ 3 8000 м дымка {туман} н/о +10.9 +10.4 97 +9 +9 1014.2 1011.6
10 16.04 ЮВ 4 12 км н/о +11.7 +10.8 94 +9 +9 1014.3 1011.7
11 16.04 ЮВ 5 17 км н/о +12.3 +11.0 92 +10 +10 1014.7 1012.1
12 16.04 ЮВ 5 15 км {туман, дымка} н/о +12.6 +11.2 91 +10 +10 1014.8 1012.2
13 16.04 ЮВ 5 17 км н/о +12.4 +10.6 89 +10 +10 1014.8 1012.2
14 16.04 ЮВ 6 19 км н/о +12.3 +10.3 88 +10 +10 1014.9 1012.3
15 16.04 ЮВ 5 18 км н/о +12.5 +10.6 88 +10 +10 1014.6 1012.0
16 16.04 ЮВ 5 17 км н/о +11.8 +10.1 89 +9 +9 1014.4 1011.8
17 16.04 ЮВ 5 19 км н/о +11.5 +10.1 91 +9 +9 1014.2 1011.6
18 16.04 В 6 14 км н/о +11.0 +10.0 94 +8 +8 1014.4 1011.8 +12.9
19 16.04 В 6 12 км н/о +10.5 +9.7 95 +7 +7 1014.6 1011.9
20 16.04 ЮВ 6 14 км н/о +10.2 +9.6 96 +7 +7 1014.9 1012.2
21 16.04 ЮВ 7 15 км н/о +10.1 +9.4 95 +6 +6 1015.1 1012.4
22 16.04 ЮВ 7 16 км н/о +10.4 +9.7 95 +7 +7 1015.2 1012.6
23 16.04 ЮВ 6 15 км н/о +10.3 +9.6 95 +7 +7 1015.2 1012.5
00 17.04 ЮВ 7 16 км н/о +10.4 +9.4 94 +7 +7 1014.7 1012.1
01 17.04 В 6 12 км н/о +10.3 +9.5 95 +7 +7 1014.6 1012.0
02 17.04 ЮВ 6 10 км слаб. ливневой дождь н/о +10.3 +9.6 95 +7 +7 1014.1 1011.5
03 17.04 В 7 9000 м дымка {ливн. осадки} н/о +10.4 +9.8 96 +7 +7 1014.0 1011.4
04 17.04 В 7 7000 м дымка н/о +10.3 +9.7 96 +6 +6 1013.9 1011.3
05 17.04 В 7 8000 м дымка н/о +10.3 +9.9 97 +6 +6 1014.1 1011.5
06 17.04 В 7 7000 м дымка {ливн. осадки} н/о +10.2 +9.8 97 +6 +6 1014.4 1011.7 +10.0 0.1
07 17.04 В 8 7000 м дымка н/о +10.2 +9.6 96 +6 +6 1014.7 1012.1
08 17.04 ЮВ 7 9000 м дымка н/о +10.6 +10.2 97 +7 +7 1015.5 1012.9
09 17.04 В 7 10 км {дымка} н/о +10.8 +10.1 95 +7 +7 1015.6 1013.0
10 17.04 В 8 11 км н/о +11.3 +10.4 94 +8 +8 1015.8 1013.1
11 17.04 В 10 13 км н/о +11.3 +9.9 91 +7 +7 1015.5 1012.9
12 17.04 В 11 13 км слаб. ливневой дождь н/о +11.2 +10.0 92 +7 +7 1015.6 1012.9 0.0
13 17.04 В 9 20 км н/о +11.2 +9.7 90 +7 +7 1015.8 1013.2
14 17.04 В 10 18 км н/о +11.0 +9.1 88 +7 +7 1015.2 1012.6
15 17.04 В 10 21 км н/о +11.2 +9.0 86 +7 +7 1015.0 1012.4
16 17.04 В 9 18 км н/о +11.2 +8.8 85 +7 +7 1015.2 1012.6
17 17.04 В 10 17 км н/о +10.8 +8.6 86 +7 +7 1015.4 1012.8
18 17.04 В 9 16 км н/о +10.5 +8.2 86 +6 +6 1015.8 1013.2 +12.3 0.0
19 17.04 В 9 14 км н/о +10.5 +8.1 85 +6 +6 1016.1 1013.5
20 17.04 В 9 9000 м дымка н/о +10.7 +8.2 85 +7 +7 1016.5 1013.9
21 17.04 В 9 7000 м дымка н/о +10.6 +7.8 83 +7 +7 1016.9 1014.3
22 17.04 В 10 8000 м дымка н/о +10.4 +8.1 86 +6 +6 1017.0 1014.4
23 17.04 В 9 10 км н/о +10.8 +7.8 82 +7 +7 1017.2 1014.6
00 18.04 В 9 8000 м дымка н/о +10.6 +8.0 84 +7 +7 1017.1 1014.5
01 18.04 В 9 6000 м дымка н/о +10.4 +8.2 86 +6 +6 1017.1 1014.5
02 18.04 В 9 6000 м дымка н/о +10.6 +8.1 85 +7 +7 1016.7 1014.1
03 18.04 В 9 7000 м дымка н/о +10.7 +7.9 83 +7 +7 1016.4 1013.8
04 18.04 В 8 7000 м дымка н/о +10.4 +7.5 82 +7 +7 1016.4 1013.8
05 18.04 В 7 8000 м дымка н/о +10.6 +7.3 80 +7 +7 1016.9 1014.2
06 18.04 СВ 6 6000 м дымка н/о +10.2 +7.4 83 +7 +7 1017.4 1014.8 +10.1
07 18.04 СВ 5 6000 м дымка н/о +10.1 +7.9 86 +7 +7 1018.2 1015.5
08 18.04 СВ 7 8000 м дымка н/о +12.0 +8.6 80 +9 +9 1018.8 1016.1
09 18.04 СВ 8 10 км {дымка} н/о +13.5 +9.2 75 +11 +11 1019.1 1016.5
10 18.04 В 8 12 км н/о +14.4 +9.3 71 +12 +12 1019.4 1016.8
11 18.04 В 9 12 км н/о +14.3 +9.5 73 +12 +12 1019.7 1017.1
12 18.04 В 9 12 км н/о +14.6 +9.7 72 +12 +12 1019.8 1017.2
13 18.04 В 10 8000 м дымка н/о +14.3 +9.5 73 +12 +12 1019.9 1017.4
14 18.04 В 10 7000 м дымка н/о +14.2 +9.4 73 +11 +11 1020.1 1017.5
15 18.04 В 11 7000 м дымка н/о +13.8 +9.3 74 +11 +11 1020.2 1017.6
16 18.04 В 9 8000 м дымка н/о +13.8 +9.2 74 +11 +11 1020.5 1017.9
17 18.04 В 8 9000 м дымка н/о +13.3 +8.7 74 +11 +11 1020.8 1018.2
18 18.04 В 8 10 км {дымка} н/о +13.4 +8.7 73 +11 +11 1021.1 1018.5 +14.8
19 18.04 В 9 8000 м дымка н/о +12.9 +8.7 76 +10 +10 1021.8 1019.2
20 18.04 В 8 6000 м дымка н/о +12.2 +9.0 81 +9 +9 1022.5 1019.9
21 18.04 В 8 6000 м дымка н/о +12.4 +9.1 80 +9 +9 1023.1 1020.4
22 18.04 В 7 6000 м дымка н/о +12.0 +9.1 82 +9 +9 1023.8 1021.1
23 18.04 В 6 7000 м дымка н/о +12.0 +9.1 82 +9 +9 1024.1 1021.5
00 19.04 В 6 8000 м дымка н/о +12.0 +9.1 82 +9 +9 1024.5 1021.9
01 19.04 В 5 8000 м дымка н/о +11.7 +9.0 83 +9 +9 1024.9 1022.2
02 19.04 В 6 7000 м дымка н/о +11.6 +9.0 84 +9 +9 1024.4 1021.7
03 19.04 В 7 7000 м дымка н/о +11.7 +9.1 84 +9 +9 1024.4 1021.8
04 19.04 В 5 5000 м дымка н/о +10.5 +8.8 89 +7 +7 1024.7 1022.1
05 19.04 В 4 5000 м дымка н/о +10.1 +8.8 92 +7 +7 1025.1 1022.4
06 19.04 В 4 6000 м дымка н/о +10.7 +9.0 89 +8 +8 1025.4 1022.7 +10.0
07 19.04 В 5 6000 м дымка н/о +11.3 +9.5 89 +9 +9 1025.5 1022.8
08 19.04 В 4 8000 м дымка н/о +13.2 +10.3 83 +11 +11 1026.4 1023.8
09 19.04 В 5 15 км н/о +14.8 +10.0 73 +13 +13 1026.8 1024.2
10 19.04 В 4 9000 м дымка н/о +14.6 +9.8 73 +13 +13 1027.9 1025.3
11 19.04 В 4 11 км н/о +14.9 +10.1 73 +14 +14 1028.2 1025.5
12 19.04 В 4 10 км н/о +14.9 +10.2 73 +14 +14 1028.4 1025.8
13 19.04 штиль 0 13 км н/о +16.7 +9.6 63 +17 +17 1028.8 1026.2
14 19.04 В 4 11 км н/о +16.5 +9.3 62 +16 +16 1028.5 1025.9
15 19.04 ЮВ 3 9000 м дымка н/о +15.3 +10.5 73 +15 +15 1028.6 1026.0
16 19.04 ЮВ 2 10 км н/о +14.9 +10.1 73 +15 +15 1029.1 1026.5
17 19.04 ЮВ 3 9000 м дымка н/о +13.7 +9.8 77 +13 +13 1029.1 1026.5
18 19.04 ЮВ 5 8000 м дымка н/о +12.8 +9.4 80 +11 +11 1029.0 1026.3 +17.3
19 19.04 В 4 7000 м дымка н/о +11.9 +9.5 85 +10 +10 1030.1 1027.4
20 19.04 В 3 6000 м дымка н/о +11.1 +9.0 87 +9 +9 1030.7 1028.0
21 19.04 В 2 6000 м дымка н/о +10.4 +8.6 89 +9 +9 1031.0 1028.4
22 19.04 СВ 1 5000 м дымка н/о +10.5 +9.1 91 +10 +10 1031.4 1028.7
23 19.04 С 1 3800 м дымка н/о +9.8 +8.5 92 +9 +9 1031.5 1028.8
00 20.04 СВ 1 4400 м дымка н/о +9.6 +8.5 93 +9 +9 1031.3 1028.7
01 20.04 С 1 3500 м дымка н/о +9.1 +8.1 93 +8 +8 1031.3 1028.7
02 20.04 СВ 2 2100 м дымка н/о +8.5 +7.7 95 +6 +6 1031.3 1028.6
03 20.04 СВ 2 2700 м дымка н/о +8.2 +7.6 96 +6 +6 1031.2 1028.5
04 20.04 С 2 3200 м дымка н/о +8.6 +8.0 96 +7 +7 1031.2 1028.5
05 20.04 СВ 2 3900 м дымка н/о +7.8 +7.1 95 +6 +6 1031.1 1028.4
06 20.04 СВ 2 5000 м дымка н/о +7.7 +7.0 95 +5 +5 1031.4 1028.7 +7.5
07 20.04 С 2 5000 м дымка н/о +9.1 +8.2 94 +7 +7 1031.5 1028.8
08 20.04 СВ 1 6000 м дымка н/о +10.4 +8.9 90 +10 +10 1031.5 1028.8
09 20.04 В 1 7000 м дымка н/о +13.4 +11.1 86 +14 +14 1031.3 1028.6
10 20.04 В 4 12 км н/о +14.3 +9.3 72 +13 +13 1031.2 1028.5
11 20.04 В 3 11 км н/о +14.7 +9.6 71 +14 +14 1031.2 1028.6
12 20.04 ЮВ 3 12 км н/о +15.4 +9.7 69 +15 +15 1030.7 1028.1
13 20.04 ЮВ 3 12 км н/о +14.5 +9.1 70 +14 +14 1030.7 1028.0
14 20.04 ЮЗ 2 9000 м дымка н/о +14.4 +10.4 77 +14 +14 1030.7 1028.0
15 20.04 ЮЗ 2 8000 м дымка н/о +13.8 +9.9 77 +13 +13 1030.1 1027.5
16 20.04 ЮЗ 2 6000 м дымка н/о +13.2 +10.1 81 +12 +12 1029.4 1026.8
17 20.04 ЮЗ 2 6000 м дымка н/о +13.6 +10.9 84 +13 +13 1029.2 1026.5
18 20.04 ЮЗ 2 5000 м дымка н/о +12.9 +10.1 83 +12 +12 1028.7 1026.0 +15.7
19 20.04 ЮЗ 3 4400 м дымка н/о +11.2 +9.6 90 +9 +9 1028.4 1025.8
20 20.04 З 2 3700 м дымка н/о +10.4 +9.4 94 +9 +9 1028.3 1025.6
21 20.04 ЮЗ 3 5000 м дымка н/о +10.2 +9.4 95 +8 +8 1028.1 1025.5
22 20.04 З 3 4600 м дымка н/о +9.9 +9.2 95 +8 +8 1027.6 1025.0
23 20.04 З 3 5000 м дымка н/о +9.8 +9.3 97 +7 +7 1027.4 1024.7
00 21.04 З 4 7000 м дымка н/о +9.8 +9.2 96 +7 +7 1026.7 1024.0
01 21.04 З 2 10 км н/о +9.7 +9.2 97 +8 +8 1026.1 1023.4
02 21.04 ЮЗ 2 9000 м дымка н/о +9.5 +8.9 96 +8 +8 1025.1 1022.4
03 21.04 ЮЗ 3 5000 м дымка н/о +9.2 +8.6 96 +7 +7 1024.4 1021.8
04 21.04 З 3 5000 м дымка н/о +8.9 +8.5 97 +6 +6 1023.6 1021.0
05 21.04 З 3 3000 м дымка н/о +9.2 +8.9 98 +7 +7 1023.1 1020.4
06 21.04 З 3 6000 м дымка н/о +9.5 +9.2 98 +7 +7 1022.7 1020.0 +8.8
07 21.04 З 1 400 м туман ?/? +9.8 +9.5 98 +9 +9 1022.3 1019.7

 

Местоположение метеостанции Остров Шеркин (Ирландия): широта 51.48 долгота -9.43 высота над уровнем моря 21 м.

В архиве по умолчанию представлена погода на Острове Шеркин за последнюю неделю. Архивные данные за месяц целиком и за предыдущие месяцы, начиная с января 2011 года, Вы можете получить, выбрав интересующий диапазон дат из раскрывающегося списка и нажав кнопку "Ввод!".


*Определитесь, кто Вы:
робот инопланетянин человек

Внимание! Время в таблицах - всемирное. Для получения местного времени необходимо прибавить поправку, которая равна 0 ч.

Смотрите также архив погоды в соседних городах и на ближайших метеорологических станциях:

Погода в Обсерватории Валентия (Ирландия) (75 км)
Погода в Аэропорту Корка (Ирландия) (77 км)
Погода на Маяке Roches Point (Ирландия) (89 км)
Погода в Аэропорту Шэннон (Ирландия) (139 км)
Погода в Гортине (Ирландия) (198 км)
Погода в Обсерватории Мейс-Хед (Ирландия) (207 км)
Погода в Замке Джонстаун (Ирландия) (221 км)
Погода в Ок Парк (Ирландия) (230 км)
Погода в Крэрморрисе (Ирландия) (250 км)
Погода в Муллингаре (Ирландия) (269 км)

Пояснения к столбцам:

Ветер - указаны скорость ветра в м/с - средняя за 10 мин, порывы в срок и между сроками (в фигурных скобках) и направление, откуда дует ветер: С - северный, СВ - северо-восточный, В - восточный, ЮВ - юго-восточный, Ю - южный, ЮЗ - юго-западный, З - западный, СЗ - северо-западный.
Видимость - горизонтальная дальность видимости в метрах или километрах. При видимости от 1 до 10 км при отсутствии осадков обычно наблюдается дымка, при ухудшении видимости до 1 км и менее - туман. В сухую погоду видимость может ухудшаться дымом, пылью или мглою.
Явления - указаны атмосферные явления, наблюдавшиеся в срок или в последний час перед сроком; фигурными скобками обозначены явления, наблюдавшиеся между сроками (за 1-3 часа до срока); квадратными скобками обозначены град или гололедные отложения с указанием их диаметра в мм.
Облачность - указаны через наклонную черту общая и нижняя облачность в баллах и высота нижней границы облаков в метрах; квадратными скобками обозначены формы облаков: Ci - перистые, Cs - перисто-слоистые, Cc - перисто-кучевые, Ac - высококучевые, As - высокослоистые, Sc - слоисто-кучевые, Ns - слоисто-дождевые, Cu - кучевые, Cb - кучево-дождевые. Подробнее классификацию облаков см. в Атласе облаков (PDF).
T - Температура воздуха - температура, измеренная на высоте 2 м над землей.
Td - Температура точки росы - температура, при понижении до которой содержащийся в воздухе водяной пар достигнет насыщения.
f - Относительная влажность воздуха - влажноcть воздуха, измеренная на высоте 2 м над землей.
Te - Эффективная температура - температура, которую ощущает одетый по сезону человек в тени. Характеристика душности погоды. При расчете учитывается влияние влажности воздуха и скорости ветра на теплоощущения человека.
Tes - Эффективная температура на солнце - температура, которую ощущает человек, с поправкой на солнечный нагрев. Характеристика знойности погоды. Зависит от высоты солнца над горизонтом, облачности и скорости ветра. Ночью, в пасмурную погоду, а также при ветре 12 м/с и более поправка равна нулю.
P - Атмосферное давление - приведенное к уровню моря атмосферное давление.
Po - Атмосферное давление - измеренное на уровне метеостанции атмосферное давление.
Tmin - Минимальная температура - минимум температуры воздуха на высоте 2 м над землей.
Tmax - Максимальная температура - максимум температуры воздуха на высоте 2 м над землей.
R - Количество осадков - Количество выпавших осадков за период времени, мм. При наведении курсора мыши на число - период времени, за который выпало указанное количество осадков.
R24 - Количество осадков - Количество выпавших осадков за 24 часа, мм.
S - Снежный покров - Высота снежного покрова, см. При наведении курсора мыши на число - состояние снежного покрова и степень покрытия местности в баллах.